Volver al catálogo

STARLINK-34847

ActivoComunicacionesVLEO
NORAD 65211·PAYLOAD·🇺🇸 United States

Lanzado Aug 14, 2025 desde Cape Canaveral Space Force Station

Loading…

Próximos Pases (próximas 24 horas)

TLE

ActualizadoSource: CelesTrak SupGP

Época: Sep 14, 2026, 22:34 UTC

1 65211C 25176P   26257.94076389 -.00006842  00000+0 -20224-3 0  2575
2 65211  53.1602 351.4032 0001210  86.5757  60.6217 15.34379662    13

Sigue STARLINK-34847 en tiempo real con AllMySat

Download on the App Store